Home   Weather   Township of Fairfield   Past weeks
Flag for USA

Past Weather in Township of Fairfield, Iowa, USA — Yesterday and Last 2 Weeks

Now
32 °F

Clear.


Feels Like: 26 °F
Forecast: 40 / 29 °F
Wind: 6 mph from North

Location: Mason City Municipal Airport

Current Time: Dec 8, 2019 at 5:29:50 pm

Latest Report: Dec 8, 2019 at 4:53 pm


Visibility: 9 mi

Pressure: 29.78 "Hg

Humidity: 88%

Dew Point: 29 °F

Location of Township of FairfieldLocation

Past Weather in Township of Fairfield — Graph

°F

Township of Fairfield Temperature Yesterday

Maximum temperature yesterday: 38 °F (at 1:53 pm)
Minimum temperature yesterday: 22 °F (at 12:53 am)
Average temperature yesterday: 31 °F

High & Low Weather Summary for the Past Weeks

 TemperatureHumidityPressure
High47 °F (Nov 25, 2:53 pm)97% (Nov 30, 9:36 am)30.56 "Hg (Nov 30, 9:36 am)
Low9 °F (Dec 2, 6:53 am)54% (Nov 25, 2:53 pm)29.30 "Hg (Dec 1, 12:27 am)
Average30 °F85%29.90 "Hg
* Reported Nov 23 3:53 pm — Dec 8 3:53 pm, Township of Fairfield. Weather by CustomWeather, © 2019

Note: Actual official high and low records may vary slightly from our data, if they occured in-between our weather recording intervals... More about our weather records

Township of Fairfield Weather History for the Previous 24 Hours

Scroll right to see more
 ConditionsComfort  
Time TempWeatherWind HumidityBarometerVisibility
3:53 pm
Sun, Dec 8
37 °FSunny.8 mph79%29.77 "Hg10 mi
2:53 pm38 °FSunny.6 mph76%29.76 "Hg10 mi
1:53 pm39 °FSunny.6 mph70%29.77 "Hg10 mi
12:53 pm38 °FSunny.9 mph73%29.78 "Hg10 mi
11:53 am38 °FSunny.8 mph73%29.80 "Hg10 mi
10:53 am37 °FSunny.6 mph76%29.81 "Hg10 mi
9:53 am35 °FSunny.7 mph75%29.81 "Hg10 mi
8:53 am33 °FSunny.8 mph82%29.80 "Hg10 mi
7:53 am32 °FSunny.7 mph82%29.78 "Hg10 mi
6:53 am33 °FClear.10 mph78%29.78 "Hg10 mi
5:53 am34 °FClear.12 mph76%29.78 "Hg10 mi
4:53 am35 °FClear.15 mph72%29.78 "Hg10 mi
3:53 am35 °FClear.13 mph72%29.79 "Hg10 mi
2:53 am35 °FClear.15 mph72%29.79 "Hg10 mi
1:53 am36 °FClear.20 mph70%29.80 "Hg10 mi
12:53 am36 °FClear.17 mph70%29.82 "Hg10 mi
11:53 pm
Sat, Dec 7
35 °FClear.15 mph75%29.84 "Hg10 mi
10:53 pm35 °FClear.16 mph75%29.86 "Hg10 mi
9:53 pm36 °FClear.15 mph73%29.89 "Hg10 mi
8:53 pm35 °FClear.20 mph75%29.89 "Hg10 mi
7:53 pm35 °FClear.18 mph72%29.93 "Hg10 mi
6:53 pm34 °FClear.14 mph76%29.96 "Hg10 mi
5:53 pm35 °FClear.16 mph75%29.97 "Hg10 mi
Weather by CustomWeather, © 2019

See weather overview

Advertising